SCP
0 0 0 0 0 0 0 0 0 0 0 0 0 0 0 0 0 0 0 0 0 0 0 0 0 0 -0 0 0 0 0 0 0 0 0 0 0 0
0 0 0 0 0 0 0 0 0 0 0 0 0 0 0 0 0 0 0 0 0 0 0 0 0 0 0 0 0 0 0 0 0 0 0 0 0 0
0 0 0 0 0 0 0 0 0 0 0 0 0 0 0 0 0 0 0 0 0 0 0 0 0 0 0 0 0 0 0 0 0 0 0 0 0 0
0 0 0 0 0 0 0 0 0 0 0 0 0 0 0 0 0 0 0 0 0 0 0 0 0 0 0 0 0 0 0 0 0 0 0 0 0 0
0 0 0 0 0 0 0 0 0 0 0 0 0 0 0 0 0 0 0 0 0 0 0 -0 0 0 0 0 -0 0 0 0 0 0 0 0 0 0
0 0 0 0 0 0 0 0 0 0 0 0 0 0 0 0 0 0 0 0 0 0 0 0 0 0 0 -0 0 0 0 0 0 0 0 0 0 0
0 0 0 0 0 0 0 0 0 0 0 0 0 0 0 0 0 0 0 0 0 0 0 0 0 -0 -0 -0 -0 0 0 0 0 0 0 0 0 0
0 0 0 0 0 0 0 0 0 0 0 0 0 0 0 0 0 0 0 0 0 0 0 0 0 -0 -0 -0 0 0 0 0 0 0 0 0 0 0
0 0 0 0 0 0 0 0 0 0 0 0 0 0 0 0 0 0 0 0 0 0 0 0 0 -0 -0 -0 0 0 0 0 0 0 0 0 0 0
0 0 0 0 0 0 0 0 0 0 0 0 0 0 0 0 0 0 0 0 0 0 0 0 0 0 -0 0 0 0 0 0 0 0 0 0 0 0
0 0 0 0 0 0 0 0 0 0 0 0 0 0 0 0 0 0 0 0 0 0 0 0 0 0 -0 0 0 0 0 0 0 0 0 0 0 0
0 0 0 0 0 0 0 0 0 0 0 0 0 0 0 0 0 0 0 0 0 0 0 0 0 0 0 0 0 0 0 0 0 0 0 0 0 0
0 0 0 0 0 0 0 0 0 0 0 0 0 0 0 0 0 0 0 0 0 0 0 0 0 0 0 0 0 0 0 0 0 0 0 0 0 0
0 0 0 0 0 0 0 0 0 0 0 0 0 0 0 0 0 0 0 0 0 0 0 0 0 0 0 0 0 0 0 0 0 0 0 0 0 0
0 0 0 0 0 0 0 0 0 0 0 0 0 0 0 0 0 0 0 0 0 0 0 0 0 0 0 0 0 0 0 0 0 0 0 0 0 0
0 0 0 0 0 0 0 0 0 0 0 0 0 0 0 0 0 0 0 0 0 0 0 0 0 0 0 0 0 0 0 0 0 0 0 0 0 0
0 0 0 0 0 0 0 0 0 0 0 0 0 0 0 0 0 0 0 0 0 0 0 0 0 0 0 0 0 0 0 0 0 0 0 0 0 0
0 0 0 0 0 0 0 0 0 0 0 0 0 0 0 0 0 0 0 0 0 0 0 0 0 0 0 0 0 0 0 0 0 0 0 0 0 0
0 0 0 0 -0 -0 -0 -0 -0 0 0 0 0 0 0 0 0 0 0 0 0 0 0 0 0 0 0 0 0 0 0 0 0 0 0 0 0 0
0 0 0 0 -0 -0 -0 -0 -0 -0 0 0 0 0 0 0 0 0 0 0 0 0 0 0 0 0 0 0 0 0 0 0 0 0 0 0 0 0
0 0 0 0 -0 -0 -0 -0 -0 0 0 0 0 0 0 0 0 0 0 0 0 0 0 0 0 0 0 0 0 0 0 0 0 0 0 0 0 0
0 0 0 0 -0 -0 -0 -0 -0 -0 0 0 0 0 0 0 0 0 0 0 0 0 0 0 0 0 0 0 0 0 0 0 0 0 0 0 0 0
0 0 0 0 0 0 0 -0 -0 0 0 0 0 0 0 0 0 0 0 0 0 0 0 0 0 0 0 0 0 0 0 0 0 0 0 0 0 0
Wind_Speed_500mb
50 54 56 55 55 55 54 55 57 62 67 62 58 50 48 45 40 47 45 45 47 53 61 49 43 49 51 42 40 38 40 43 46 49 47 52 50 50
58 58 66 58 61 60 59 61 65 71 76 64 61 61 59 51 49 38 36 44 55 62 47 41 44 44 45 52 49 48 46 50 49 50 50 51 52 51
57 60 61 61 64 68 69 70 71 70 77 82 66 61 64 61 51 51 63 71 56 49 48 56 56 48 44 48 57 58 54 49 49 50 51 49 49 47
64 66 65 62 61 62 64 70 76 80 83 92 77 71 65 75 75 68 57 53 49 44 52 54 46 49 45 47 52 63 60 55 54 52 53 51 51 48
64 66 66 64 65 63 62 67 73 74 73 77 79 77 79 78 77 70 63 53 52 53 60 64 50 44 39 45 56 59 64 60 57 53 54 56 53 50
64 66 69 70 71 72 68 65 61 59 58 61 70 76 76 76 72 70 65 65 71 75 73 53 59 51 53 56 53 53 58 56 56 52 51 55 55 52
82 83 84 84 84 83 79 80 79 77 73 71 68 64 70 73 75 71 65 65 64 59 59 58 66 64 66 68 61 51 52 56 52 49 49 54 55 54
99 100 98 95 95 95 92 92 92 90 89 87 85 68 70 65 65 71 68 60 62 60 58 60 58 72 75 83 67 52 50 49 54 52 56 52 53 55
96 98 101 103 104 105 103 98 96 97 95 89 89 90 86 77 71 68 71 72 63 60 56 65 74 85 84 77 53 51 46 41 45 52 59 59 55 55
69 69 68 68 64 63 63 65 66 64 67 65 66 66 62 69 73 71 74 70 63 70 74 72 78 85 76 56 48 43 38 34 37 40 47 54 56 56
61 59 58 52 49 51 55 55 61 65 63 65 64 65 68 66 70 70 58 62 72 73 71 71 75 71 67 53 44 31 31 35 34 35 37 46 52 55
55 54 55 51 50 45 44 43 48 58 53 54 53 52 45 57 69 82 88 80 59 54 61 59 61 54 34 32 30 30 21 31 34 39 40 47 54 56
54 56 57 53 46 45 44 47 51 48 52 56 59 56 53 57 70 69 71 89 100 67 46 48 43 35 31 32 31 30 31 23 25 30 37 44 45 44
56 58 56 51 51 50 52 50 48 50 58 63 61 60 62 53 53 49 57 61 100 87 44 43 42 45 41 41 35 35 34 39 23 24 30 36 41 42
57 54 52 53 50 51 51 50 48 53 56 58 62 63 50 44 47 39 38 59 72 75 54 49 48 42 38 37 30 49 39 34 36 29 29 31 35 35
61 58 55 53 56 59 57 52 47 45 48 51 53 44 48 45 41 42 36 48 57 76 62 52 46 41 44 47 30 40 41 32 35 27 25 29 35 38
56 56 56 56 55 52 48 41 32 35 36 34 39 39 36 29 32 31 32 41 54 54 48 44 39 41 40 32 40 29 47 42 33 26 19 22 29 32
45 45 46 46 44 40 30 18 25 28 25 29 26 27 31 28 24 23 27 39 55 55 52 44 41 48 35 26 27 29 47 43 29 25 19 16 18 27
32 29 31 31 29 18 16 17 24 26 18 24 22 23 25 19 19 24 27 31 41 44 46 43 44 58 59 37 35 34 44 41 34 27 25 17 16 21
21 20 18 15 16 15 18 27 31 26 25 28 27 25 20 22 27 31 32 36 36 41 37 38 41 53 54 54 44 40 30 27 27 24 23 24 22 24
28 23 31 32 33 31 26 22 24 28 28 20 10 11 13 18 21 27 32 39 37 32 33 39 51 52 48 43 40 41 31 29 21 18 20 24 27 28
39 48 43 39 34 29 22 23 27 25 14 8 7 7 10 12 25 20 24 28 28 29 43 52 48 39 35 27 30 35 39 35 29 22 20 28 26 24
49 55 55 62 38 23 15 15 11 6 4 6 14 16 20 14 15 28 25 24 29 34 47 54 45 39 42 29 25 29 25 24 27 31 30 30 24 23
Wind_Direction_500mb
276 276 273 275 278 279 276 279 280 278 281 285 286 283 280 289 277 286 280 278 292 301 305 299 293 280 279 275 271 275 275 276 272 264 261 252 247 249
269 273 275 279 277 275 275 274 274 275 275 278 279 286 286 283 284 274 259 285 290 294 294 296 300 295 292 268 269 267 273 274 274 272 266 257 248 248
271 271 271 270 270 272 272 273 272 271 275 279 279 277 281 280 277 274 279 284 282 274 292 303 302 298 291 279 268 265 264 268 272 275 270 261 246 243
278 277 280 279 276 273 273 272 272 271 271 274 277 276 271 274 280 282 276 269 263 259 294 296 287 290 285 281 276 263 258 261 265 269 270 261 246 240
288 284 282 281 280 279 277 275 272 271 270 271 276 276 277 277 278 278 278 258 257 277 292 283 271 280 287 300 298 278 259 257 262 263 267 261 248 239
289 289 290 286 282 279 277 274 272 273 273 272 277 277 276 273 275 274 266 257 263 279 283 276 264 268 282 298 297 283 266 259 263 256 257 257 249 238
286 284 283 281 279 279 279 278 278 277 276 276 277 273 269 271 272 272 268 271 274 270 269 257 257 268 276 293 294 283 269 265 258 251 254 251 243 237
286 284 281 278 277 276 275 276 278 279 277 276 275 270 270 266 267 268 267 264 267 266 256 256 261 273 280 291 292 279 275 260 255 246 246 248 237 229
287 286 286 283 281 278 279 278 275 274 274 274 272 268 266 266 266 263 260 260 257 258 257 272 277 281 289 295 279 278 266 258 258 243 236 238 228 222
294 293 292 292 288 282 279 277 275 272 269 266 261 260 264 263 257 260 261 252 251 256 260 273 279 285 291 286 278 277 264 247 255 239 229 224 213 216
299 297 296 294 290 288 289 287 285 279 275 275 274 269 258 242 239 240 239 251 255 257 261 268 277 284 290 279 274 269 259 242 245 227 209 203 201 202
299 295 294 291 288 290 288 280 284 289 292 291 287 281 274 258 251 246 245 248 252 258 256 256 271 280 289 289 270 248 263 231 223 210 200 201 207 216
306 304 299 297 294 292 291 284 280 292 292 289 283 276 275 267 256 253 244 237 240 254 251 253 262 256 269 284 289 237 223 201 198 202 203 210 217 222
306 304 299 294 291 289 286 280 280 285 284 287 278 270 272 269 275 262 248 239 234 237 240 250 259 263 273 267 261 222 197 202 211 224 221 219 222 223
302 302 296 294 291 287 286 285 283 284 282 278 272 274 266 272 277 248 246 227 226 224 230 258 256 259 253 261 236 210 197 189 204 209 211 215 216 213
302 299 294 288 285 285 285 285 286 283 281 275 273 267 273 268 257 244 243 217 213 225 235 239 243 253 253 250 227 207 207 201 197 202 207 207 212 208
298 291 288 287 291 294 292 285 280 292 284 271 273 273 265 257 244 229 212 197 205 212 222 227 237 237 228 206 213 241 213 202 196 197 203 215 213 210
303 296 293 293 294 299 295 276 306 298 292 287 274 269 264 258 222 219 196 212 214 219 226 237 223 211 221 215 211 219 215 202 185 188 199 205 212 209
318 313 304 302 303 304 287 288 309 307 272 255 248 235 238 239 230 221 223 210 210 222 226 229 217 210 211 186 187 204 201 195 192 201 202 214 221 218
352 354 355 352 336 318 284 283 301 301 282 281 282 280 260 211 222 222 226 216 216 216 216 224 218 202 197 180 165 171 176 198 201 196 201 205 212 215
24 21 358 342 330 324 322 321 319 320 322 328 277 229 227 228 212 209 209 208 208 204 198 203 194 191 201 192 181 177 183 182 193 198 206 213 199 199
349 354 360 357 343 333 315 300 295 301 301 264 192 178 199 189 167 173 158 167 177 187 183 172 173 170 162 179 186 185 185 189 194 195 199 209 206 199
354 352 354 350 345 330 326 318 311 285 191 193 168 165 190 203 204 189 182 184 171 178 176 167 160 161 181 208 210 188 186 190 190 194 196 207 213 209
Wind_Speed_850mb
50 54 56 55 55 55 54 55 57 62 67 62 58 50 48 45 40 47 45 45 47 53 61 49 43 49 51 42 40 38 40 43 46 49 47 52 50 50
58 58 66 58 61 60 59 61 65 71 76 64 61 61 59 51 49 38 36 44 55 62 47 41 44 44 45 52 49 48 46 50 49 50 50 51 52 51
57 60 61 61 64 68 69 70 71 70 77 82 66 61 64 61 51 51 63 71 56 49 48 56 56 48 44 48 57 58 54 49 49 50 51 49 49 47
64 66 65 62 61 62 64 70 76 80 83 92 77 71 65 75 75 68 57 53 49 44 52 54 46 49 45 47 52 63 60 55 54 52 53 51 51 48
64 66 66 64 65 63 62 67 73 74 73 77 79 77 79 78 77 70 63 53 52 53 60 64 50 44 39 45 56 59 64 60 57 53 54 56 53 50
64 66 69 70 71 72 68 65 61 59 58 61 70 76 76 76 72 70 65 65 71 75 73 53 59 51 53 56 53 53 58 56 56 52 51 55 55 52
82 83 84 84 84 83 79 80 79 77 73 71 68 64 70 73 75 71 65 65 64 59 59 58 66 64 66 68 61 51 52 56 52 49 49 54 55 54
99 100 98 95 95 95 92 92 92 90 89 87 85 68 70 65 65 71 68 60 62 60 58 60 58 72 75 83 67 52 50 49 54 52 56 52 53 55
96 98 101 103 104 105 103 98 96 97 95 89 89 90 86 77 71 68 71 72 63 60 56 65 74 85 84 77 53 51 46 41 45 52 59 59 55 55
69 69 68 68 64 63 63 65 66 64 67 65 66 66 62 69 73 71 74 70 63 70 74 72 78 85 76 56 48 43 38 34 37 40 47 54 56 56
61 59 58 52 49 51 55 55 61 65 63 65 64 65 68 66 70 70 58 62 72 73 71 71 75 71 67 53 44 31 31 35 34 35 37 46 52 55
55 54 55 51 50 45 44 43 48 58 53 54 53 52 45 57 69 82 88 80 59 54 61 59 61 54 34 32 30 30 21 31 34 39 40 47 54 56
54 56 57 53 46 45 44 47 51 48 52 56 59 56 53 57 70 69 71 89 100 67 46 48 43 35 31 32 31 30 31 23 25 30 37 44 45 44
56 58 56 51 51 50 52 50 48 50 58 63 61 60 62 53 53 49 57 61 100 87 44 43 42 45 41 41 35 35 34 39 23 24 30 36 41 42
57 54 52 53 50 51 51 50 48 53 56 58 62 63 50 44 47 39 38 59 72 75 54 49 48 42 38 37 30 49 39 34 36 29 29 31 35 35
61 58 55 53 56 59 57 52 47 45 48 51 53 44 48 45 41 42 36 48 57 76 62 52 46 41 44 47 30 40 41 32 35 27 25 29 35 38
56 56 56 56 55 52 48 41 32 35 36 34 39 39 36 29 32 31 32 41 54 54 48 44 39 41 40 32 40 29 47 42 33 26 19 22 29 32
45 45 46 46 44 40 30 18 25 28 25 29 26 27 31 28 24 23 27 39 55 55 52 44 41 48 35 26 27 29 47 43 29 25 19 16 18 27
32 29 31 31 29 18 16 17 24 26 18 24 22 23 25 19 19 24 27 31 41 44 46 43 44 58 59 37 35 34 44 41 34 27 25 17 16 21
21 20 18 15 16 15 18 27 31 26 25 28 27 25 20 22 27 31 32 36 36 41 37 38 41 53 54 54 44 40 30 27 27 24 23 24 22 24
28 23 31 32 33 31 26 22 24 28 28 20 10 11 13 18 21 27 32 39 37 32 33 39 51 52 48 43 40 41 31 29 21 18 20 24 27 28
39 48 43 39 34 29 22 23 27 25 14 8 7 7 10 12 25 20 24 28 28 29 43 52 48 39 35 27 30 35 39 35 29 22 20 28 26 24
49 55 55 62 38 23 15 15 11 6 4 6 14 16 20 14 15 28 25 24 29 34 47 54 45 39 42 29 25 29 25 24 27 31 30 30 24 23
Wind_Direction_850mb
276 276 273 275 278 279 276 279 280 278 281 285 286 283 280 289 277 286 280 278 292 301 305 299 293 280 279 275 271 275 275 276 272 264 261 252 247 249
269 273 275 279 277 275 275 274 274 275 275 278 279 286 286 283 284 274 259 285 290 294 294 296 300 295 292 268 269 267 273 274 274 272 266 257 248 248
271 271 271 270 270 272 272 273 272 271 275 279 279 277 281 280 277 274 279 284 282 274 292 303 302 298 291 279 268 265 264 268 272 275 270 261 246 243
278 277 280 279 276 273 273 272 272 271 271 274 277 276 271 274 280 282 276 269 263 259 294 296 287 290 285 281 276 263 258 261 265 269 270 261 246 240
288 284 282 281 280 279 277 275 272 271 270 271 276 276 277 277 278 278 278 258 257 277 292 283 271 280 287 300 298 278 259 257 262 263 267 261 248 239
289 289 290 286 282 279 277 274 272 273 273 272 277 277 276 273 275 274 266 257 263 279 283 276 264 268 282 298 297 283 266 259 263 256 257 257 249 238
286 284 283 281 279 279 279 278 278 277 276 276 277 273 269 271 272 272 268 271 274 270 269 257 257 268 276 293 294 283 269 265 258 251 254 251 243 237
286 284 281 278 277 276 275 276 278 279 277 276 275 270 270 266 267 268 267 264 267 266 256 256 261 273 280 291 292 279 275 260 255 246 246 248 237 229
287 286 286 283 281 278 279 278 275 274 274 274 272 268 266 266 266 263 260 260 257 258 257 272 277 281 289 295 279 278 266 258 258 243 236 238 228 222
294 293 292 292 288 282 279 277 275 272 269 266 261 260 264 263 257 260 261 252 251 256 260 273 279 285 291 286 278 277 264 247 255 239 229 224 213 216
299 297 296 294 290 288 289 287 285 279 275 275 274 269 258 242 239 240 239 251 255 257 261 268 277 284 290 279 274 269 259 242 245 227 209 203 201 202
299 295 294 291 288 290 288 280 284 289 292 291 287 281 274 258 251 246 245 248 252 258 256 256 271 280 289 289 270 248 263 231 223 210 200 201 207 216
306 304 299 297 294 292 291 284 280 292 292 289 283 276 275 267 256 253 244 237 240 254 251 253 262 256 269 284 289 237 223 201 198 202 203 210 217 222
306 304 299 294 291 289 286 280 280 285 284 287 278 270 272 269 275 262 248 239 234 237 240 250 259 263 273 267 261 222 197 202 211 224 221 219 222 223
302 302 296 294 291 287 286 285 283 284 282 278 272 274 266 272 277 248 246 227 226 224 230 258 256 259 253 261 236 210 197 189 204 209 211 215 216 213
302 299 294 288 285 285 285 285 286 283 281 275 273 267 273 268 257 244 243 217 213 225 235 239 243 253 253 250 227 207 207 201 197 202 207 207 212 208
298 291 288 287 291 294 292 285 280 292 284 271 273 273 265 257 244 229 212 197 205 212 222 227 237 237 228 206 213 241 213 202 196 197 203 215 213 210
303 296 293 293 294 299 295 276 306 298 292 287 274 269 264 258 222 219 196 212 214 219 226 237 223 211 221 215 211 219 215 202 185 188 199 205 212 209
318 313 304 302 303 304 287 288 309 307 272 255 248 235 238 239 230 221 223 210 210 222 226 229 217 210 211 186 187 204 201 195 192 201 202 214 221 218
352 354 355 352 336 318 284 283 301 301 282 281 282 280 260 211 222 222 226 216 216 216 216 224 218 202 197 180 165 171 176 198 201 196 201 205 212 215
24 21 358 342 330 324 322 321 319 320 322 328 277 229 227 228 212 209 209 208 208 204 198 203 194 191 201 192 181 177 183 182 193 198 206 213 199 199
349 354 360 357 343 333 315 300 295 301 301 264 192 178 199 189 167 173 158 167 177 187 183 172 173 170 162 179 186 185 185 189 194 195 199 209 206 199
354 352 354 350 345 330 326 318 311 285 191 193 168 165 190 203 204 189 182 184 171 178 176 167 160 161 181 208 210 188 186 190 190 194 196 207 213 209